TimeCDT,TemperatureF,Dew PointF,Humidity,Sea Level PressureIn,VisibilityMPH,Wind Direction,Wind SpeedMPH,Gust SpeedMPH,PrecipitationIn,Events,Conditions,WindDirDegrees,DateUTC
12:15 AM,68.0,42.8,40,29.97,10.0,SE,4.6,-,N/A,,Clear,140,2013-05-14 05:15:00
12:35 AM,68.0,42.8,40,29.96,10.0,SSE,5.8,-,N/A,,Clear,160,2013-05-14 05:35:00
12:55 AM,68.0,42.8,40,29.95,10.0,SSW,3.5,-,N/A,,Clear,200,2013-05-14 05:55:00
1:15 AM,59.0,42.8,55,29.95,10.0,SSW,5.8,-,N/A,,Clear,210,2013-05-14 06:15:00
1:35 AM,60.8,44.6,55,29.94,10.0,SSW,4.6,-,N/A,,Clear,210,2013-05-14 06:35:00
1:55 AM,57.2,44.6,63,29.93,10.0,SW,5.8,-,N/A,,Clear,220,2013-05-14 06:55:00
2:15 AM,55.4,42.8,63,29.92,10.0,SW,5.8,-,N/A,,Clear,230,2013-05-14 07:15:00
2:35 AM,55.4,42.8,63,29.92,10.0,WSW,6.9,-,N/A,,Clear,240,2013-05-14 07:35:00
2:55 AM,53.6,42.8,67,29.91,10.0,SW,5.8,-,N/A,,Clear,230,2013-05-14 07:55:00
3:15 AM,53.6,42.8,67,29.91,10.0,SW,5.8,-,N/A,,Clear,220,2013-05-14 08:15:00
3:35 AM,51.8,42.8,71,29.91,10.0,WSW,8.1,-,N/A,,Clear,240,2013-05-14 08:35:00
3:55 AM,51.8,42.8,71,29.91,10.0,WSW,8.1,-,N/A,,Clear,240,2013-05-14 08:55:00
4:15 AM,51.8,42.8,71,29.91,10.0,WSW,8.1,-,N/A,,Clear,250,2013-05-14 09:15:00
4:35 AM,51.8,42.8,71,29.90,10.0,West,6.9,-,N/A,,Clear,260,2013-05-14 09:35:00
4:55 AM,53.6,42.8,67,29.90,10.0,West,5.8,-,N/A,,Clear,260,2013-05-14 09:55:00
5:15 AM,51.8,42.8,71,29.90,10.0,West,6.9,-,N/A,,Clear,260,2013-05-14 10:15:00
5:35 AM,51.8,42.8,71,29.90,10.0,West,8.1,-,N/A,,Clear,260,2013-05-14 10:35:00
5:55 AM,51.8,42.8,71,29.90,10.0,West,8.1,-,N/A,,Clear,270,2013-05-14 10:55:00
6:15 AM,51.8,42.8,71,29.90,10.0,West,8.1,-,N/A,,Clear,270,2013-05-14 11:15:00
6:35 AM,51.8,44.6,76,29.90,10.0,West,8.1,-,N/A,,Clear,270,2013-05-14 11:35:00
6:55 AM,53.6,44.6,72,29.90,10.0,West,9.2,-,N/A,,Clear,280,2013-05-14 11:55:00
7:15 AM,55.4,46.4,72,29.90,10.0,West,9.2,-,N/A,,Clear,280,2013-05-14 12:15:00
7:35 AM,60.8,46.4,59,29.90,10.0,West,10.4,-,N/A,,Clear,280,2013-05-14 12:35:00
7:55 AM,62.6,50.0,63,29.91,10.0,West,8.1,-,N/A,,Clear,260,2013-05-14 12:55:00
8:15 AM,68.0,50.0,52,29.91,10.0,West,8.1,-,N/A,,Clear,260,2013-05-14 13:15:00
8:35 AM,71.6,51.8,50,29.91,10.0,West,6.9,-,N/A,,Clear,270,2013-05-14 13:35:00
8:55 AM,75.2,51.8,44,29.91,10.0,West,5.8,-,N/A,,Clear,280,2013-05-14 13:55:00
9:15 AM,78.8,51.8,39,29.91,10.0,West,4.6,-,N/A,,Clear,280,2013-05-14 14:15:00
9:35 AM,82.4,51.8,35,29.91,10.0,West,8.1,-,N/A,,Clear,280,2013-05-14 14:35:00
9:55 AM,84.2,50.0,30,29.91,10.0,West,8.1,-,N/A,,Clear,270,2013-05-14 14:55:00
10:15 AM,86.0,50.0,29,29.91,10.0,West,5.8,-,N/A,,Clear,280,2013-05-14 15:15:00
10:35 AM,89.6,46.4,22,29.90,10.0,West,6.9,-,N/A,,Clear,270,2013-05-14 15:35:00
10:55 AM,89.6,46.4,22,29.90,10.0,West,5.8,-,N/A,,Clear,280,2013-05-14 15:55:00
11:15 AM,91.4,44.6,20,29.90,10.0,SW,5.8,-,N/A,,Clear,230,2013-05-14 16:15:00
11:35 AM,91.4,44.6,20,29.89,10.0,SSW,6.9,-,N/A,,Clear,200,2013-05-14 16:35:00
11:55 AM,93.2,46.4,20,29.88,10.0,WSW,6.9,-,N/A,,Clear,250,2013-05-14 16:55:00
12:15 PM,93.2,46.4,20,29.88,10.0,SSW,8.1,-,N/A,,Clear,200,2013-05-14 17:15:00
12:35 PM,95.0,46.4,19,29.87,10.0,West,9.2,-,N/A,,Clear,270,2013-05-14 17:35:00
12:55 PM,95.0,44.6,18,29.86,10.0,North,6.9,-,N/A,,Clear,350,2013-05-14 17:55:00
1:15 PM,95.0,44.6,18,29.86,10.0,NW,8.1,-,N/A,,Clear,310,2013-05-14 18:15:00
1:35 PM,95.0,44.6,18,29.85,10.0,WSW,4.6,-,N/A,,Clear,240,2013-05-14 18:35:00
1:55 PM,95.0,44.6,18,29.84,10.0,Calm,Calm,-,N/A,,Clear,0,2013-05-14 18:55:00
2:15 PM,95.0,44.6,18,29.82,10.0,Calm,Calm,-,N/A,,Clear,0,2013-05-14 19:15:00
2:35 PM,95.0,46.4,19,29.82,10.0,West,8.1,-,N/A,,Clear,260,2013-05-14 19:35:00
2:55 PM,95.0,44.6,18,29.81,10.0,WSW,4.6,-,N/A,,Clear,240,2013-05-14 19:55:00
3:15 PM,95.0,46.4,19,29.81,10.0,South,6.9,-,N/A,,Clear,170,2013-05-14 20:15:00
3:35 PM,91.4,46.4,21,29.81,10.0,SSE,18.4,-,N/A,,Clear,160,2013-05-14 20:35:00
3:55 PM,91.4,44.6,20,29.80,10.0,SSW,9.2,-,N/A,,Clear,200,2013-05-14 20:55:00
4:15 PM,89.6,44.6,21,29.80,10.0,South,10.4,-,N/A,,Clear,190,2013-05-14 21:15:00
4:35 PM,89.6,44.6,21,29.79,10.0,SSW,9.2,23.0,N/A,,Clear,210,2013-05-14 21:35:00
4:55 PM,87.8,46.4,24,29.80,10.0,South,16.1,23.0,N/A,,Clear,190,2013-05-14 21:55:00
5:15 PM,86.0,46.4,25,29.81,10.0,SSW,16.1,25.3,N/A,,Clear,200,2013-05-14 22:15:00
5:35 PM,84.2,46.4,27,29.80,10.0,SSW,9.2,-,N/A,,Clear,200,2013-05-14 22:35:00
5:55 PM,82.4,50.0,32,29.80,10.0,SW,5.8,-,N/A,,Clear,230,2013-05-14 22:55:00
6:15 PM,86.0,46.4,25,29.79,10.0,SW,9.2,-,N/A,,Clear,220,2013-05-14 23:15:00
6:35 PM,84.2,48.2,29,29.79,10.0,SW,9.2,-,N/A,,Clear,220,2013-05-14 23:35:00
6:55 PM,86.0,46.4,25,29.79,10.0,SW,11.5,-,N/A,,Clear,230,2013-05-14 23:55:00
7:15 PM,82.4,46.4,28,29.78,10.0,SSW,8.1,-,N/A,,Clear,200,2013-05-15 00:15:00
7:35 PM,86.0,44.6,23,29.78,10.0,SSW,8.1,-,N/A,,Clear,200,2013-05-15 00:35:00
7:55 PM,86.0,44.6,23,29.77,10.0,South,9.2,-,N/A,,Clear,190,2013-05-15 00:55:00
8:15 PM,82.4,44.6,26,29.78,10.0,South,6.9,-,N/A,,Clear,190,2013-05-15 01:15:00
8:35 PM,82.4,44.6,26,29.79,10.0,South,3.5,-,N/A,,Clear,190,2013-05-15 01:35:00
8:55 PM,77.0,44.6,32,29.79,10.0,WSW,10.4,-,N/A,,Clear,250,2013-05-15 01:55:00
9:15 PM,77.0,44.6,32,29.80,10.0,SW,9.2,-,N/A,,Clear,220,2013-05-15 02:15:00
9:35 PM,75.2,44.6,34,29.80,10.0,SW,8.1,-,N/A,,Clear,230,2013-05-15 02:35:00
9:55 PM,73.4,44.6,36,29.81,10.0,SW,6.9,-,N/A,,Clear,220,2013-05-15 02:55:00
10:15 PM,69.8,44.6,40,29.82,10.0,WSW,5.8,-,N/A,,Clear,240,2013-05-15 03:15:00
10:35 PM,71.6,44.6,38,29.85,10.0,NNW,9.2,23.0,N/A,,Clear,330,2013-05-15 03:35:00
10:55 PM,73.4,46.4,38,29.86,10.0,NNE,6.9,-,N/A,,Clear,20,2013-05-15 03:55:00
11:15 PM,71.6,46.4,41,29.86,10.0,NW,4.6,-,N/A,,Clear,310,2013-05-15 04:15:00
11:35 PM,71.6,46.4,41,29.87,10.0,East,10.4,-,N/A,,Scattered Clouds,90,2013-05-15 04:35:00
11:55 PM,73.4,46.4,38,29.87,10.0,East,9.2,-,N/A,,Scattered Clouds,100,2013-05-15 04:55:00